FW4212 Weather Reports


Display with metric or nautical units.
time (UTC)temp
F
wind
direction
speed
MPH
gust
MPH
rain 1hr
in
rain 24hr
in
rain mn
in
humidity
%
barometer
mb
20260506204510 70 242 1.0 8.0 0.00 0.06 0.06 78 1012.5
20260506204012 70 150 3.0 8.0 0.00 0.06 0.06 77 1012.5
20260506203508 71 268 3.0 7.0 0.00 0.06 0.06 78 1012.6
20260506203013 71 224 2.0 5.0 0.00 0.06 0.06 78 1012.8
20260506202507 70 216 1.0 4.0 0.00 0.06 0.06 78 1012.8
20260506202010 70 221 2.0 4.0 0.00 0.06 0.06 79 1012.9
20260506201506 70 206 1.0 4.0 0.00 0.06 0.06 79 1013.0
20260506201007 70 211 1.0 8.0 0.00 0.06 0.06 79 1013.0
20260506200504 70 231 1.0 6.0 0.00 0.06 0.06 80 1013.2
20260506200005 70 242 2.0 7.0 0.00 0.06 0.06 81 1013.3
20260506195504 70 267 1.0 7.0 0.00 0.06 0.06 80 1013.2
20260506195004 71 261 1.0 6.0 0.00 0.06 0.06 80 1013.4
20260506194504 71 227 2.0 7.0 0.00 0.06 0.06 79 1013.6
20260506194004 70 239 2.0 7.0 0.00 0.06 0.06 79 1013.7
20260506193507 70 226 1.0 9.0 0.00 0.06 0.06 81 1013.5
20260506193002 70 267 2.0 9.0 0.00 0.06 0.06 82 1013.5
20260506192502 70 247 2.0 6.0 0.00 0.06 0.06 81 1013.5
20260506192002 70 207 0.0 6.0 0.00 0.06 0.06 81 1013.4
20260506191502 70 242 2.0 6.0 0.00 0.06 0.06 83 1013.2
20260506191001 69 170 2.0 6.0 0.00 0.06 0.06 83 1013.2
20260506190500 68 113 1.0 6.0 0.00 0.06 0.06 83 1013.2
20260506190059 69 238 2.0 6.0 0.00 0.06 0.06 82 1013.2
20260506185658 69 244 2.0 5.0 0.00 0.06 0.06 82 1013.3
20260506184046 68 215 2.0 5.0 0.00 0.06 0.06 82 1013.3
20260506183511 68 220 1.0 4.0 0.00 0.06 0.06 85 1013.5
20260506183134 68 111 1.0 6.0 0.00 0.06 0.06 86 1013.3
20260506182517 68 207 2.0 8.0 0.00 0.06 0.06 84 1013.2
20260506182122 67 190 0.0 8.0 0.00 0.06 0.06 86 1013.2
20260506181503 67 105 2.0 6.0 0.00 0.06 0.06 87 1013.0
20260506181003 66 143 0.0 6.0 0.00 0.06 0.06 88 1013.2
20260506180502 66 127 1.0 6.0 0.00 0.06 0.06 86 1013.4
20260506180001 66 130 2.0 6.0 0.00 0.06 0.06 88 1013.5
20260506175600 66 26 0.0 3.0 0.00 0.06 0.06 90 1013.7
20260506175103 65 109 0.0 3.0 0.00 0.06 0.06 89 1013.5
20260506174559 65 134 1.0 4.0 0.00 0.06 0.06 89 1013.4
20260506174058 64 138 1.0 4.0 0.01 0.06 0.06 90 1013.6
20260506173558 64 94 1.0 5.0 0.01 0.06 0.06 90 1013.3
20260506173134 64 109 1.0 5.0 0.02 0.06 0.06 90 1013.3
20260506172557 64 111 1.0 3.0 0.02 0.06 0.06 91 1013.6
20260506172056 64 197 0.0 2.0 0.02 0.06 0.06 90 1014.3
20260506171556 64 117 0.0 4.0 0.02 0.06 0.06 93 1014.3
20260506171055 63 126 1.0 4.0 0.02 0.06 0.06 92 1014.5
20260506170555 62 211 0.0 2.0 0.03 0.06 0.06 92 1014.9
20260506170054 62 222 0.0 2.0 0.03 0.06 0.06 93 1015.3
20260506165554 62 337 0.0 0.0 0.03 0.06 0.06 93 1014.7
20260506165055 62 341 0.0 0.0 0.04 0.06 0.06 93 1014.8
20260506164555 62 24 0.0 0.0 0.04 0.06 0.06 92 1015.2
20260506164054 62 259 0.0 0.0 0.03 0.05 0.05 92 1015.7
20260506163553 62 188 0.0 1.0 0.04 0.05 0.05 92 1015.5
20260506163058 62 190 0.0 2.0 0.03 0.04 0.04 91 1015.5
20260506162555 62 298 0.0 3.0 0.03 0.04 0.04 91 1015.7
20260506162053 62 218 1.0 3.0 0.03 0.04 0.04 92 1015.5
20260506161556 62 246 0.0 1.0 0.03 0.04 0.04 92 1015.6
20260506161051 62 246 0.0 2.0 0.03 0.04 0.04 92 1015.6
20260506160551 62 247 0.0 2.0 0.02 0.03 0.03 91 1015.5
20260506160049 62 283 0.0 2.0 0.03 0.03 0.03 91 1015.2
20260506155552 62 283 0.0 2.0 0.03 0.03 0.03 90 1015.1
20260506155049 62 250 0.0 3.0 0.02 0.02 0.02 90 1015.0
20260506154549 62 309 0.0 2.0 0.02 0.02 0.02 90 1015.1
20260506154048 62 53 0.0 0.0 0.01 0.01 0.01 89 1015.2
20260506153551 62 53 0.0 0.0 0.01 0.01 0.01 90 1015.2
20260506153045 61 53 0.0 0.0 0.01 0.01 0.01 90 1015.0
20260506152544 62 77 0.0 0.0 0.01 0.01 0.01 91 1014.8
20260506152044 62 77 0.0 0.0 0.01 0.01 0.01 91 1014.6
20260506151546 61 77 0.0 0.0 0.01 0.01 0.01 91 1014.3
20260506151044 61 77 0.0 0.0 0.01 0.01 0.01 90 1014.2
20260506150543 61 77 0.0 0.0 0.00 0.00 0.00 90 1014.3
20260506150044 61 77 0.0 0.0 0.00 0.00 0.00 89 1014.3
20260506145541 62 77 0.0 0.0 0.00 0.00 0.00 88 1014.2
20260506145041 62 77 0.0 0.0 0.00 0.00 0.00 86 1014.1
20260506144558 62 77 0.0 0.0 0.00 0.00 0.00 84 1013.8
20260506144041 62 77 0.0 0.0 0.00 0.00 0.00 84 1013.6
20260506143541 63 67 0.0 0.0 0.00 0.00 0.00 82 1013.5
20260506143041 63 67 0.0 0.0 0.00 0.00 0.00 82 1013.5
20260506142541 63 67 0.0 1.0 0.00 0.00 0.00 81 1013.8
20260506142040 63 67 0.0 1.0 0.00 0.00 0.00 80 1013.9
20260506141540 63 69 0.0 0.0 0.00 0.00 0.00 80 1014.0
20260506141040 63 69 0.0 1.0 0.00 0.00 0.00 80 1014.3
20260506140543 62 69 0.0 1.0 0.00 0.00 0.00 81 1014.3
20260506140040 62 246 0.0 0.0 0.00 0.00 0.00 81 1014.3
20260506135538 62 201 0.0 0.0 0.00 0.00 0.00 81 1014.2
20260506135038 62 137 0.0 0.0 0.00 0.00 0.00 81 1014.2
20260506134539 62 76 0.0 0.0 0.00 0.00 0.00 81 1014.1
20260506134039 62 76 0.0 0.0 0.00 0.00 0.00 80 1013.8
20260506133539 62 83 0.0 0.0 0.00 0.00 0.00 80 1013.7
20260506133044 62 128 0.0 3.0 0.00 0.00 0.00 81 1013.7
20260506132538 62 134 0.0 3.0 0.00 0.00 0.00 80 1013.8
20260506132038 62 103 0.0 0.0 0.00 0.00 0.00 81 1013.9
20260506131538 62 103 0.0 3.0 0.00 0.00 0.00 81 1013.7
20260506131038 62 98 0.0 3.0 0.00 0.00 0.00 81 1013.7
20260506130537 62 25 0.0 0.0 0.00 0.00 0.00 81 1013.9
20260506130039 62 25 0.0 1.0 0.00 0.00 0.00 82 1014.0
20260506125536 61 28 0.0 3.0 0.00 0.00 0.00 82 1013.9
20260506125036 61 202 0.0 1.0 0.00 0.00 0.00 82 1013.9
20260506124539 61 209 0.0 1.0 0.00 0.00 0.00 83 1014.0
20260506124036 61 109 0.0 1.0 0.00 0.00 0.00 83 1013.9
20260506123536 60 116 0.0 1.0 0.00 0.00 0.00 83 1013.8
20260506123037 60 323 0.0 4.0 0.00 0.00 0.00 83 1013.8
20260506122537 60 177 1.0 4.0 0.00 0.00 0.00 83 1013.6
20260506122036 60 205 0.0 3.0 0.00 0.00 0.00 83 1013.6
20260506121536 60 115 0.0 3.0 0.00 0.00 0.00 83 1013.6
20260506121036 60 99 1.0 3.0 0.00 0.00 0.00 83 1014.0
20260506120535 60 133 1.0 3.0 0.00 0.00 0.00 84 1013.8
20260506120035 60 109 0.0 3.0 0.00 0.00 0.00 84 1014.1
20260506115535 60 101 0.0 2.0 0.00 0.00 0.00 84 1014.1
20260506115035 60 95 0.0 1.0 0.00 0.00 0.00 84 1014.3
20260506114534 60 95 0.0 1.0 0.00 0.00 0.00 84 1014.2
20260506114034 60 113 0.0 1.0 0.00 0.00 0.00 84 1014.3
20260506113534 59 105 0.0 1.0 0.00 0.00 0.00 84 1014.1
20260506113034 59 153 0.0 1.0 0.00 0.00 0.00 84 1014.4
20260506112534 59 227 0.0 1.0 0.00 0.00 0.00 84 1014.3
20260506112034 59 100 0.0 0.0 0.00 0.00 0.00 84 1014.0
20260506111534 59 100 0.0 0.0 0.00 0.00 0.00 85 1013.9
20260506111034 59 98 0.0 0.0 0.00 0.00 0.00 85 1013.9
20260506110533 59 129 0.0 0.0 0.00 0.00 0.00 84 1014.1
20260506110036 59 129 0.0 0.0 0.00 0.00 0.00 84 1014.0
20260506105534 59 129 0.0 3.0 0.00 0.00 0.00 84 1013.8
20260506105033 59 129 0.0 3.0 0.00 0.00 0.00 84 1013.7
20260506104533 59 113 0.0 1.0 0.00 0.00 0.00 83 1013.7
20260506104032 59 108 0.0 1.0 0.00 0.00 0.00 83 1013.6
20260506103533 59 148 0.0 1.0 0.00 0.00 0.00 84 1013.7
20260506103031 59 161 0.0 0.0 0.00 0.00 0.00 84 1013.7
20260506102532 59 115 0.0 0.0 0.00 0.00 0.00 84 1013.4
20260506102032 59 124 0.0 0.0 0.00 0.00 0.00 84 1013.4
20260506101532 59 97 0.0 0.0 0.00 0.00 0.00 83 1013.3
20260506101032 59 97 0.0 0.0 0.00 0.00 0.00 83 1013.4
20260506100533 59 97 0.0 0.0 0.00 0.00 0.00 83 1013.2
20260506100030 59 97 0.0 0.0 0.00 0.00 0.00 84 1013.3
20260506095530 59 103 0.0 0.0 0.00 0.00 0.00 84 1013.3
20260506095030 59 85 0.0 1.0 0.00 0.00 0.00 84 1013.4
20260506094530 59 85 0.0 2.0 0.00 0.00 0.00 84 1013.6
20260506094028 59 121 0.0 2.0 0.00 0.00 0.00 84 1013.5
20260506093529 59 148 0.0 1.0 0.00 0.00 0.00 83 1013.5
20260506093037 59 148 0.0 3.0 0.00 0.00 0.00 83 1013.5
20260506092529 59 130 1.0 3.0 0.00 0.00 0.00 83 1013.5
20260506092028 59 70 0.0 1.0 0.00 0.00 0.00 82 1013.6
20260506091531 60 56 0.0 1.0 0.00 0.00 0.00 82 1013.5
20260506091028 60 110 0.0 4.0 0.00 0.00 0.00 82 1013.5
20260506090526 60 113 0.0 3.0 0.00 0.00 0.00 82 1013.8
20260506090027 60 126 1.0 4.0 0.00 0.00 0.00 82 1013.6
20260506085526 59 99 0.0 4.0 0.00 0.00 0.00 81 1013.7
20260506085026 59 111 0.0 2.0 0.00 0.00 0.00 81 1013.7
20260506084534 60 105 0.0 4.0 0.00 0.00 0.00 81 1013.9
20260506084026 60 117 0.0 4.0 0.00 0.00 0.00 80 1013.9
20260506083525 60 115 0.0 3.0 0.00 0.00 0.00 81 1013.7
20260506083024 60 152 1.0 4.0 0.00 0.00 0.00 80 1013.7
20260506082524 60 89 0.0 4.0 0.00 0.00 0.00 80 1013.7
20260506082024 60 106 1.0 3.0 0.00 0.00 0.00 79 1013.8
20260506081523 60 257 0.0 4.0 0.00 0.00 0.00 79 1013.9
20260506081023 60 130 0.0 4.0 0.00 0.00 0.00 78 1013.9
20260506080522 61 98 0.0 3.0 0.00 0.00 0.00 78 1014.0
20260506073521 61 91 0.0 7.0 0.00 0.00 0.00 75 1014.0
20260506073021 62 115 1.0 7.0 0.00 0.00 0.00 75 1014.0
20260506072522 62 183 0.0 8.0 0.00 0.00 0.00 74 1013.9
20260506072020 62 128 2.0 8.0 0.00 0.00 0.00 74 1013.9
20260506071520 62 51 0.0 4.0 0.00 0.00 0.00 73 1014.0
20260506071019 62 148 0.0 4.0 0.00 0.00 0.00 73 1013.9
20260506070519 62 209 0.0 4.0 0.00 0.00 0.00 73 1014.2
20260506062018 63 210 0.0 9.0 0.00 0.00 0.00 69 1014.0
20260506061524 63 144 2.0 9.0 0.00 0.00 0.00 69 1013.9
20260506061018 63 127 2.0 7.0 0.00 0.00 0.00 67 1014.3
20260506060516 63 135 1.0 4.0 0.00 0.00 0.00 66 1014.2
20260506051010 58 259 0.0 0.0 0.00 0.00 0.00 73 1014.7
20260506050510 58 259 0.0 0.0 0.00 0.00 0.00 74 1014.4
20260506045006 59 259 0.0 1.0 0.00 0.00 0.00 70 1014.4
20260506044510 59 259 0.0 0.0 0.00 0.00 0.00 72 1014.4
20260506044005 60 259 0.0 0.0 0.00 0.00 0.00 69 1014.4
20260506043505 60 242 0.0 0.0 0.00 0.00 0.00 71 1014.4
20260506043003 60 242 0.0 0.0 0.00 0.00 0.00 70 1014.4
20260506042503 60 242 0.0 0.0 0.00 0.00 0.00 67 1014.3
20260506042003 60 242 0.0 0.0 0.00 0.00 0.00 67 1014.5
20260506041502 60 242 0.0 0.0 0.00 0.00 0.00 68 1014.5
20260506041003 60 242 0.0 0.0 0.00 0.00 0.00 67 1014.6
20260506040559 60 242 0.0 0.0 0.00 0.00 0.00 69 1014.6
20260506040059 61 242 0.0 3.0 0.00 0.00 0.00 68 1014.7
20260506035558 62 242 0.0 3.0 0.00 0.00 0.00 66 1014.5
20260506035058 62 202 0.0 3.0 0.00 0.00 0.00 64 1014.5
20260506034603 62 217 0.0 3.0 0.00 0.00 0.00 63 1014.4
20260506034059 63 182 0.0 2.0 0.00 0.00 0.00 61 1014.5
20260506033557 62 49 0.0 0.0 0.00 0.00 0.00 62 1014.5
20260506033119 62 49 0.0 0.0 0.00 0.00 0.00 64 1014.6
20260506032558 60 49 0.0 0.0 0.00 0.00 0.00 67 1014.6
20260506032058 60 49 0.0 0.0 0.00 0.00 0.00 69 1014.6
20260506031558 60 49 0.0 0.0 0.00 0.00 0.00 68 1014.6
20260506031058 60 49 0.0 0.0 0.00 0.00 0.00 68 1014.6
20260506030556 60 49 0.0 0.0 0.00 0.00 0.00 67 1014.5
20260506025556 61 49 0.0 1.0 0.00 0.00 0.00 65 1014.5
20260506025100 61 38 0.0 0.0 0.00 0.00 0.00 65 1014.5
20260506024614 61 115 0.0 0.0 0.00 0.00 0.00 64 1014.5
20260506024056 62 123 0.0 0.0 0.00 0.00 0.00 63 1014.6
20260506023556 62 123 0.0 2.0 0.00 0.00 0.00 63 1014.6
20260506023103 63 123 0.0 2.0 0.00 0.00 0.00 60 1014.6
20260506022555 63 232 0.0 1.0 0.00 0.00 0.00 59 1014.5
20260506022056 63 232 0.0 1.0 0.00 0.00 0.00 59 1014.6
20260506021600 63 225 0.0 0.0 0.00 0.00 0.00 59 1014.6
20260506021059 63 225 0.0 0.0 0.00 0.00 0.00 58 1014.6
20260506020554 63 225 0.0 0.0 0.00 0.00 0.00 59 1014.7
20260506020054 63 225 0.0 0.0 0.00 0.00 0.00 59 1014.7
20260506015556 64 225 0.0 0.0 0.00 0.00 0.00 57 1014.7
20260506015054 64 225 0.0 0.0 0.00 0.00 0.00 56 1014.7
20260506014554 65 225 0.0 0.0 0.00 0.00 0.00 55 1014.7
20260506014100 65 225 0.0 0.0 0.00 0.00 0.00 54 1014.7
20260506013554 65 225 0.0 0.0 0.00 0.00 0.00 54 1014.7
20260506013101 65 225 0.0 0.0 0.00 0.00 0.00 55 1014.6
20260506012554 65 225 0.0 0.0 0.00 0.00 0.00 53 1014.6
20260506012057 65 225 0.0 0.0 0.00 0.00 0.00 53 1014.6
20260506011620 66 225 0.0 0.0 0.00 0.00 0.00 52 1014.6
20260506011053 67 225 0.0 0.0 0.00 0.00 0.00 50 1014.6
20260506010553 67 225 0.0 0.0 0.00 0.00 0.00 50 1014.6
20260506010059 67 225 0.0 0.0 0.00 0.00 0.00 50 1014.5
20260506005551 67 225 0.0 0.0 0.00 0.00 0.00 50 1014.5
20260506005054 67 225 0.0 0.0 0.00 0.00 0.00 49 1014.6
20260506004552 67 225 0.0 0.0 0.00 0.00 0.00 48 1014.5
20260506004051 68 225 0.0 1.0 0.00 0.00 0.00 48 1014.4
20260506003551 68 225 0.0 1.0 0.00 0.00 0.00 48 1014.5
20260506003051 68 213 0.0 0.0 0.00 0.00 0.00 47 1014.5
20260506002551 69 213 0.0 0.0 0.00 0.00 0.00 46 1014.4
20260506002050 69 213 0.0 1.0 0.00 0.00 0.00 46 1014.3
20260506001551 70 213 0.0 3.0 0.00 0.00 0.00 45 1014.4
20260506001051 70 257 0.0 3.0 0.00 0.00 0.00 44 1014.3
20260506000549 70 215 0.0 2.0 0.00 0.00 0.00 45 1014.2
20260506000057 71 225 0.0 2.0 0.00 0.00 0.00 44 1014.2
20260505235549 71 211 0.0 3.0 0.00 0.00 0.00 44 1014.2
20260505235049 71 211 0.0 3.0 0.00 0.00 0.00 43 1014.3
20260505234549 71 229 0.0 3.0 0.00 0.00 0.00 43 1014.2
20260505234048 72 205 0.0 3.0 0.00 0.00 0.00 42 1014.2
20260505233549 72 234 0.0 3.0 0.00 0.00 0.00 42 1014.2
20260505233048 72 200 0.0 5.0 0.00 0.00 0.00 41 1014.1
20260505232549 72 206 1.0 5.0 0.00 0.00 0.00 42 1014.1
20260505232048 72 190 0.0 4.0 0.00 0.00 0.00 41 1014.1
20260505231549 73 221 1.0 7.0 0.00 0.00 0.00 40 1014.1
20260505231048 73 235 3.0 9.0 0.00 0.00 0.00 39 1014.0
20260505230548 73 239 2.0 9.0 0.00 0.00 0.00 40 1014.0
20260505230047 73 198 2.0 13.0 0.00 0.00 0.00 40 1014.0
20260505225547 73 214 4.0 13.0 0.00 0.00 0.00 39 1014.1
20260505225047 73 210 1.0 7.0 0.00 0.00 0.00 40 1014.1
20260505224547 73 217 2.0 6.0 0.00 0.00 0.00 40 1014.1
20260505224046 74 217 2.0 7.0 0.00 0.00 0.00 40 1014.0
20260505223546 74 244 0.0 7.0 0.00 0.00 0.00 39 1014.0
20260505223046 74 165 2.0 10.0 0.00 0.00 0.00 39 1014.2
20260505222546 74 234 3.0 10.0 0.00 0.00 0.00 38 1014.1
20260505222046 74 211 3.0 8.0 0.00 0.00 0.00 38 1014.1
20260505221556 74 213 3.0 12.0 0.00 0.00 0.00 38 1014.1
20260505221047 74 240 3.0 12.0 0.00 0.00 0.00 38 1014.2
20260505220545 74 234 4.0 11.0 0.00 0.00 0.00 38 1014.1
20260505220056 74 240 2.0 10.0 0.00 0.00 0.00 38 1014.1
20260505215545 74 235 2.0 10.0 0.00 0.00 0.00 38 1014.0
20260505215045 75 219 3.0 11.0 0.00 0.00 0.00 37 1014.0
20260505214551 74 206 3.0 10.0 0.00 0.00 0.00 39 1014.1
20260505214044 74 249 2.0 10.0 0.00 0.00 0.00 39 1014.2
20260505213543 75 200 3.0 7.0 0.00 0.00 0.00 38 1014.2
20260505213044 75 297 1.0 6.0 0.00 0.00 0.00 38 1014.3
20260505212543 75 239 2.0 9.0 0.00 0.00 0.00 39 1014.1
20260505212043 76 182 3.0 9.0 0.00 0.00 0.00 37 1014.3
20260505211542 76 233 1.0 9.0 0.00 0.00 0.00 37 1014.2
20260505211041 76 215 3.0 9.0 0.00 0.00 0.00 38 1014.4
20260505210541 76 277 2.0 10.0 0.00 0.00 0.00 36 1014.6
20260505210048 76 253 2.0 10.0 0.00 0.00 0.00 38 1014.6
20260505205541 76 215 4.0 10.0 0.00 0.00 0.00 37 1014.6
20260505205042 76 219 3.0 9.0 0.00 0.00 0.00 37 1014.5